RYR34KC EPKK-LIEO

Flight info

Callsign RYR34KC
Flight time 1h 59m
Altitude 38000
Route BABKO DCT VADEX L856 KOPAT DCT MAREG DCT GIRDA DCT BAXON DCT GITRI
Aircraft B38M/M-SADE3FGILRWY/SB1

Departure

Time 2026-05-07 15:34
Airport Kraków John Paul II International Airport (EPKK)

Arrival

Time 2026-05-07 17:33
Airport Olbia Costa Smeralda Airport (LIEO)
Time Latitude Longitude Altitude Speed Heading
2026-05-07 15:11 50.07493 19.80212 792 ft 0 kts 167°
2026-05-07 15:29 50.07480 19.80217 792 ft 4 kts 167°
2026-05-07 15:29 50.07445 19.80236 792 ft 4 kts 138°
2026-05-07 15:29 50.07438 19.80281 792 ft 6 kts 85°
2026-05-07 15:30 50.07463 19.80372 792 ft 12 kts 34°
2026-05-07 15:30 50.07558 19.80419 792 ft 16 kts 15°
2026-05-07 15:30 50.07662 19.80398 792 ft 16 kts 348°
2026-05-07 15:30 50.07768 19.80363 792 ft 13 kts 348°
2026-05-07 15:31 50.07825 19.80342 792 ft 2 kts 347°
2026-05-07 15:31 50.07848 19.80334 792 ft 4 kts 347°
2026-05-07 15:31 50.07888 19.80320 792 ft 8 kts 347°
2026-05-07 15:31 50.07953 19.80297 791 ft 12 kts 347°
2026-05-07 15:32 50.08014 19.80219 791 ft 13 kts 273°
2026-05-07 15:32 50.08010 19.80183 791 ft 0 kts 259°
2026-05-07 15:33 50.07966 19.79865 790 ft 67 kts 257°
2026-05-07 15:33 50.07820 19.78809 794 ft 130 kts 257°
2026-05-07 15:33 50.07585 19.77222 1018 ft 159 kts 257°
2026-05-07 15:34 50.07367 19.75459 1555 ft 172 kts 257°
2026-05-07 15:34 50.07089 19.73662 2348 ft 167 kts 253°
2026-05-07 15:34 50.06753 19.71953 3057 ft 175 kts 254°
2026-05-07 15:34 50.06480 19.69964 3457 ft 201 kts 258°
2026-05-07 15:35 50.06180 19.67728 3994 ft 221 kts 253°
2026-05-07 15:35 50.05373 19.65625 4467 ft 239 kts 222°
2026-05-07 15:35 50.03812 19.64524 4901 ft 261 kts 188°
2026-05-07 15:35 50.02023 19.64928 5620 ft 267 kts 166°
2026-05-07 15:36 50.00202 19.65625 6332 ft 272 kts 170°
2026-05-07 15:36 49.98344 19.66265 7087 ft 274 kts 170°
2026-05-07 15:36 49.96478 19.66902 7841 ft 276 kts 170°
2026-05-07 15:36 49.94592 19.67542 8579 ft 279 kts 170°
2026-05-07 15:37 49.92692 19.68185 9362 ft 280 kts 170°
2026-05-07 15:37 49.90776 19.68833 10094 ft 283 kts 170°
2026-05-07 15:37 49.88798 19.69371 10470 ft 296 kts 181°
2026-05-07 15:37 49.86798 19.68748 10853 ft 304 kts 205°
2026-05-07 15:38 49.84901 19.67202 11387 ft 311 kts 209°
2026-05-07 15:38 49.82994 19.65609 12124 ft 313 kts 209°
2026-05-07 15:38 49.81071 19.63981 12892 ft 316 kts 209°
2026-05-07 15:38 49.79137 19.62332 13655 ft 319 kts 209°
2026-05-07 15:39 49.77186 19.60661 14353 ft 322 kts 209°
2026-05-07 15:39 49.75218 19.58973 15096 ft 324 kts 208°
2026-05-07 15:39 49.73239 19.57275 15844 ft 326 kts 208°
2026-05-07 15:39 49.71248 19.55567 16528 ft 329 kts 208°
2026-05-07 15:40 49.69240 19.53846 17244 ft 331 kts 208°
2026-05-07 15:40 49.67249 19.52142 17952 ft 333 kts 208°
2026-05-07 15:40 49.65216 19.50404 18566 ft 336 kts 208°
2026-05-07 15:40 49.63164 19.48649 19118 ft 338 kts 208°
2026-05-07 15:41 49.61166 19.46735 19692 ft 341 kts 219°
2026-05-07 15:41 49.59500 19.44102 20288 ft 344 kts 224°
2026-05-07 15:41 49.57834 19.41433 20811 ft 347 kts 224°
2026-05-07 15:41 49.56164 19.38735 21393 ft 349 kts 224°
2026-05-07 15:42 49.54487 19.36011 21942 ft 351 kts 224°
2026-05-07 15:42 49.52830 19.33315 22442 ft 354 kts 224°
2026-05-07 15:42 49.51134 19.30553 22963 ft 356 kts 224°
2026-05-07 15:42 49.49425 19.27773 23500 ft 358 kts 224°
2026-05-07 15:43 49.47709 19.24983 23931 ft 360 kts 224°
2026-05-07 15:43 49.45987 19.22186 24388 ft 362 kts 224°
2026-05-07 15:43 49.44254 19.19375 24832 ft 364 kts 224°
2026-05-07 15:43 49.42510 19.16549 25273 ft 365 kts 224°
2026-05-07 15:44 49.40757 19.13712 25706 ft 367 kts 224°
2026-05-07 15:44 49.39017 19.10898 26130 ft 369 kts 224°
2026-05-07 15:44 49.37223 19.08001 26557 ft 371 kts 224°
2026-05-07 15:44 49.35466 19.05166 26965 ft 372 kts 224°
2026-05-07 15:45 49.33672 19.02276 27389 ft 375 kts 224°
2026-05-07 15:45 49.31872 18.99379 27807 ft 376 kts 224°
2026-05-07 15:45 49.30068 18.96478 28230 ft 376 kts 224°
2026-05-07 15:45 49.28253 18.93561 28556 ft 380 kts 224°
2026-05-07 15:46 49.24592 18.87694 29248 ft 384 kts 224°
2026-05-07 15:46 49.22743 18.84734 29597 ft 385 kts 224°
2026-05-07 15:46 49.20910 18.81803 29954 ft 387 kts 224°
2026-05-07 15:47 49.19046 18.78827 30250 ft 389 kts 224°
2026-05-07 15:47 49.17175 18.75843 30562 ft 389 kts 224°
2026-05-07 15:47 49.15297 18.72849 30866 ft 390 kts 224°
2026-05-07 15:47 49.13416 18.69856 31176 ft 391 kts 224°
2026-05-07 15:48 49.11530 18.66859 31470 ft 392 kts 224°
2026-05-07 15:48 49.09770 18.63668 31749 ft 394 kts 229°
2026-05-07 15:48 49.08080 18.60377 32041 ft 395 kts 229°
2026-05-07 15:48 49.06364 18.57090 32308 ft 396 kts 229°
2026-05-07 15:49 49.04663 18.53857 32580 ft 397 kts 229°
2026-05-07 15:49 49.02930 18.50582 32913 ft 396 kts 228°
2026-05-07 15:49 49.01206 18.47330 33326 ft 393 kts 228°
2026-05-07 15:49 48.99492 18.44105 33726 ft 391 kts 228°
2026-05-07 15:50 48.97787 18.40897 34045 ft 389 kts 228°
2026-05-07 15:50 48.96086 18.37704 34306 ft 388 kts 228°
2026-05-07 15:50 48.94387 18.34517 34545 ft 388 kts 228°
2026-05-07 15:50 48.92679 18.31318 34661 ft 392 kts 229°
2026-05-07 15:51 48.90976 18.28131 34819 ft 393 kts 229°
2026-05-07 15:51 48.89248 18.24901 35064 ft 395 kts 228°
2026-05-07 15:51 48.87509 18.21656 35196 ft 398 kts 228°
2026-05-07 15:51 48.85755 18.18386 35360 ft 400 kts 229°
2026-05-07 15:52 48.83998 18.15114 35566 ft 400 kts 229°
2026-05-07 15:52 48.82235 18.11834 35766 ft 401 kts 229°
2026-05-07 15:52 48.80471 18.08558 35974 ft 402 kts 229°
2026-05-07 15:52 48.78704 18.05281 36150 ft 402 kts 229°
2026-05-07 15:53 48.76952 18.02035 36318 ft 403 kts 229°
2026-05-07 15:53 48.75177 17.98748 36498 ft 404 kts 229°
2026-05-07 15:53 48.73393 17.95453 36688 ft 404 kts 229°
2026-05-07 15:53 48.71609 17.92159 36846 ft 405 kts 229°
2026-05-07 15:54 48.69821 17.88863 37008 ft 406 kts 229°
2026-05-07 15:54 48.68035 17.85573 37177 ft 406 kts 229°
2026-05-07 15:54 48.66240 17.82272 37327 ft 407 kts 229°
2026-05-07 15:54 48.64441 17.78969 37475 ft 407 kts 229°
2026-05-07 15:55 48.62639 17.75662 37625 ft 408 kts 229°
2026-05-07 15:55 48.60857 17.72397 37771 ft 408 kts 230°
2026-05-07 15:55 48.59047 17.69084 37910 ft 408 kts 230°
2026-05-07 15:56 48.55421 17.62461 37955 ft 410 kts 230°
2026-05-07 15:56 48.51791 17.55846 37960 ft 409 kts 230°
2026-05-07 15:57 48.48170 17.49265 37960 ft 411 kts 230°
2026-05-07 15:57 48.44539 17.42680 37959 ft 412 kts 230°
2026-05-07 15:58 48.40877 17.36057 37951 ft 412 kts 230°
2026-05-07 15:58 48.37210 17.29440 37967 ft 412 kts 230°
2026-05-07 15:59 48.33537 17.22831 37963 ft 412 kts 230°
2026-05-07 15:59 48.29859 17.16227 37963 ft 412 kts 230°
2026-05-07 16:00 48.27751 17.12449 37965 ft 412 kts 230°
2026-05-07 16:00 48.24070 17.05861 37951 ft 412 kts 230°
2026-05-07 16:01 48.20385 16.99281 37966 ft 412 kts 230°
2026-05-07 16:01 48.18376 16.96225 37952 ft 412 kts 218°
2026-05-07 16:01 48.16067 16.93687 37962 ft 413 kts 218°
2026-05-07 16:02 48.11509 16.88543 37970 ft 413 kts 218°
2026-05-07 16:02 48.06888 16.83411 37965 ft 414 kts 218°
2026-05-07 16:03 48.02259 16.78293 37967 ft 414 kts 218°
2026-05-07 16:03 47.97623 16.73180 37964 ft 414 kts 218°
2026-05-07 16:04 47.92990 16.68081 37961 ft 414 kts 218°
2026-05-07 16:04 47.88382 16.63022 37961 ft 414 kts 218°
2026-05-07 16:05 47.83744 16.57942 37963 ft 413 kts 218°
2026-05-07 16:05 47.79124 16.52891 37960 ft 412 kts 218°
2026-05-07 16:06 47.74505 16.47855 37968 ft 412 kts 218°
2026-05-07 16:06 47.69918 16.42864 37968 ft 412 kts 217°
2026-05-07 16:07 47.65293 16.37843 37964 ft 412 kts 217°
2026-05-07 16:07 47.60667 16.32832 37959 ft 412 kts 217°
2026-05-07 16:08 47.56040 16.27832 37961 ft 412 kts 217°
2026-05-07 16:08 47.51409 16.22838 37966 ft 412 kts 217°
2026-05-07 16:09 47.46811 16.17892 37961 ft 410 kts 217°
2026-05-07 16:09 47.42209 16.12950 37954 ft 409 kts 217°
2026-05-07 16:10 47.37604 16.08017 37956 ft 409 kts 217°
2026-05-07 16:10 47.33006 16.03103 37949 ft 409 kts 217°
2026-05-07 16:11 47.28434 15.98226 37944 ft 408 kts 217°
2026-05-07 16:11 47.23835 15.93333 37945 ft 408 kts 217°
2026-05-07 16:12 47.19239 15.88452 37934 ft 408 kts 217°
2026-05-07 16:12 47.14634 15.83573 37951 ft 408 kts 217°
2026-05-07 16:13 47.10062 15.78739 37914 ft 408 kts 218°
2026-05-07 16:13 47.05450 15.73875 37921 ft 408 kts 217°
2026-05-07 16:14 47.00833 15.69015 37916 ft 408 kts 217°
2026-05-07 16:14 46.96217 15.64167 37912 ft 408 kts 217°
2026-05-07 16:15 46.91600 15.59327 37901 ft 409 kts 218°
2026-05-07 16:15 46.86997 15.54513 37909 ft 410 kts 218°
2026-05-07 16:16 46.82359 15.49673 37914 ft 410 kts 218°
2026-05-07 16:16 46.77718 15.44840 37905 ft 410 kts 218°
2026-05-07 16:17 46.73076 15.40017 37900 ft 410 kts 218°
2026-05-07 16:17 46.68454 15.35225 37909 ft 411 kts 218°
2026-05-07 16:18 46.63792 15.30402 37921 ft 411 kts 218°
2026-05-07 16:18 46.59132 15.25591 37917 ft 411 kts 218°
2026-05-07 16:19 46.54469 15.20787 37908 ft 410 kts 218°
2026-05-07 16:19 46.49814 15.16002 37920 ft 410 kts 218°
2026-05-07 16:20 46.45177 15.11247 37920 ft 411 kts 218°
2026-05-07 16:20 46.40511 15.06471 37919 ft 411 kts 218°
2026-05-07 16:21 46.35843 15.01702 37928 ft 410 kts 218°
2026-05-07 16:21 46.31189 14.96959 37928 ft 409 kts 218°
2026-05-07 16:22 46.26556 14.92247 37936 ft 411 kts 218°
2026-05-07 16:22 46.21877 14.87500 37944 ft 411 kts 218°
2026-05-07 16:23 46.17201 14.82763 37943 ft 410 kts 218°
2026-05-07 16:23 46.12535 14.78048 37952 ft 409 kts 218°
2026-05-07 16:24 46.07904 14.73377 37959 ft 409 kts 218°
2026-05-07 16:24 46.03235 14.68679 37947 ft 409 kts 218°
2026-05-07 16:25 45.98561 14.63985 37960 ft 407 kts 218°
2026-05-07 16:25 45.93936 14.59350 37955 ft 406 kts 218°
2026-05-07 16:26 45.89307 14.54720 37930 ft 406 kts 218°
2026-05-07 16:26 45.84663 14.50085 37983 ft 407 kts 218°
2026-05-07 16:27 45.80018 14.45459 37966 ft 406 kts 218°
2026-05-07 16:27 45.75409 14.40878 37980 ft 406 kts 218°
2026-05-07 16:28 45.70765 14.36270 37980 ft 406 kts 218°
2026-05-07 16:28 45.66125 14.31676 37969 ft 406 kts 218°
2026-05-07 16:29 45.61495 14.27100 37991 ft 404 kts 218°
2026-05-07 16:29 45.56872 14.22539 37995 ft 404 kts 218°
2026-05-07 16:30 45.52281 14.18020 38004 ft 404 kts 218°
2026-05-07 16:30 45.47642 14.13522 37977 ft 404 kts 212°
2026-05-07 16:31 45.42511 14.10144 37994 ft 406 kts 208°
2026-05-07 16:31 45.38221 14.07372 38011 ft 409 kts 208°
2026-05-07 16:32 45.32178 14.03483 37999 ft 410 kts 208°
2026-05-07 16:32 45.26981 14.00147 37991 ft 409 kts 208°
2026-05-07 16:33 45.22672 13.97386 37998 ft 409 kts 208°
2026-05-07 16:33 45.17487 13.94069 37999 ft 409 kts 208°
2026-05-07 16:34 45.11458 13.90222 37982 ft 409 kts 208°
2026-05-07 16:34 45.07112 13.87454 38003 ft 409 kts 208°
2026-05-07 16:35 45.01958 13.84178 38008 ft 409 kts 208°
2026-05-07 16:35 44.96769 13.80886 38019 ft 409 kts 208°
2026-05-07 16:36 44.91580 13.77599 38009 ft 409 kts 208°
2026-05-07 16:36 44.86387 13.74317 38020 ft 409 kts 208°
2026-05-07 16:37 44.81230 13.71065 38021 ft 409 kts 208°
2026-05-07 16:37 44.76033 13.67794 38010 ft 409 kts 208°
2026-05-07 16:38 44.70838 13.64530 38009 ft 409 kts 208°
2026-05-07 16:38 44.65644 13.61273 38004 ft 409 kts 208°
2026-05-07 16:39 44.60484 13.58045 38002 ft 409 kts 208°
2026-05-07 16:39 44.55292 13.54801 37989 ft 408 kts 208°
2026-05-07 16:40 44.50099 13.51565 37992 ft 408 kts 208°
2026-05-07 16:40 44.44907 13.48334 37995 ft 408 kts 208°
2026-05-07 16:41 44.39981 13.44558 38013 ft 400 kts 220°
2026-05-07 16:41 44.35472 13.40026 37989 ft 402 kts 219°
2026-05-07 16:42 44.30931 13.35441 37986 ft 403 kts 219°
2026-05-07 16:42 44.26396 13.30858 37992 ft 403 kts 219°
2026-05-07 16:43 44.21857 13.26277 37958 ft 403 kts 220°
2026-05-07 16:43 44.17371 13.21759 37986 ft 399 kts 220°
2026-05-07 16:44 44.12873 13.17237 37985 ft 399 kts 220°
2026-05-07 16:44 44.08371 13.12721 38004 ft 399 kts 220°
2026-05-07 16:45 44.03865 13.08208 37985 ft 399 kts 220°
2026-05-07 16:45 43.99351 13.03696 37982 ft 400 kts 220°
2026-05-07 16:46 43.94871 12.99227 37978 ft 400 kts 220°
2026-05-07 16:46 43.90356 12.94731 37982 ft 399 kts 220°
2026-05-07 16:47 43.85842 12.90245 37977 ft 398 kts 220°
2026-05-07 16:47 43.81354 12.85794 37982 ft 396 kts 220°
2026-05-07 16:48 43.76901 12.81385 37975 ft 396 kts 220°
2026-05-07 16:48 43.72418 12.76954 37998 ft 396 kts 220°
2026-05-07 16:49 43.67946 12.72543 37975 ft 394 kts 220°
2026-05-07 16:49 43.63491 12.68157 37984 ft 393 kts 220°
2026-05-07 16:50 43.59037 12.63781 37980 ft 393 kts 220°
2026-05-07 16:50 43.54613 12.59441 37999 ft 394 kts 220°
2026-05-07 16:51 43.50142 12.55064 37936 ft 393 kts 220°
2026-05-07 16:51 43.45685 12.50708 37975 ft 394 kts 220°
2026-05-07 16:52 43.41221 12.46354 37979 ft 393 kts 220°
2026-05-07 16:52 43.36761 12.42011 37980 ft 392 kts 220°
2026-05-07 16:53 43.32298 12.37675 37971 ft 392 kts 220°
2026-05-07 16:53 43.27873 12.33381 37973 ft 392 kts 220°
2026-05-07 16:54 43.23412 12.29062 37967 ft 393 kts 220°
2026-05-07 16:54 43.18950 12.24750 37964 ft 392 kts 220°
2026-05-07 16:55 43.14501 12.20456 37971 ft 390 kts 220°
2026-05-07 16:55 43.10101 12.16220 37977 ft 389 kts 220°
2026-05-07 16:56 43.05671 12.11961 37972 ft 389 kts 220°
2026-05-07 16:56 42.99026 12.05588 37951 ft 389 kts 220°
2026-05-07 16:57 42.94609 12.01361 37963 ft 386 kts 220°
2026-05-07 16:57 42.90239 11.97186 37966 ft 387 kts 220°
2026-05-07 16:58 42.85832 11.92983 37961 ft 386 kts 220°
2026-05-07 16:58 42.81426 11.88789 38009 ft 387 kts 220°
2026-05-07 16:59 42.77021 11.84603 37971 ft 384 kts 220°
2026-05-07 16:59 42.72675 11.80481 37974 ft 384 kts 220°
2026-05-07 17:00 42.68291 11.76329 37970 ft 384 kts 220°
2026-05-07 17:00 42.63912 11.72190 37973 ft 383 kts 220°
2026-05-07 17:01 42.59539 11.68063 37969 ft 381 kts 220°
2026-05-07 17:01 42.55185 11.63963 37971 ft 381 kts 220°
2026-05-07 17:02 42.50854 11.59890 37961 ft 381 kts 220°
2026-05-07 17:02 42.46493 11.55795 37970 ft 382 kts 220°
2026-05-07 17:03 42.42133 11.51710 37950 ft 381 kts 220°
2026-05-07 17:03 42.37788 11.47645 37962 ft 379 kts 220°
2026-05-07 17:04 42.33479 11.43621 37963 ft 379 kts 220°
2026-05-07 17:04 42.29143 11.39578 37962 ft 379 kts 220°
2026-05-07 17:05 42.24797 11.35534 37966 ft 379 kts 220°
2026-05-07 17:05 42.20456 11.31500 37962 ft 379 kts 220°
2026-05-07 17:06 42.16139 11.27496 37968 ft 380 kts 219°
2026-05-07 17:06 42.11772 11.23452 37967 ft 381 kts 219°
2026-05-07 17:07 42.07418 11.19427 37963 ft 381 kts 219°
2026-05-07 17:07 42.03051 11.15396 37959 ft 380 kts 219°
2026-05-07 17:08 41.98723 11.11410 37958 ft 380 kts 219°
2026-05-07 17:08 41.94363 11.07400 37960 ft 380 kts 219°
2026-05-07 17:09 41.90007 11.03400 37966 ft 380 kts 219°
2026-05-07 17:09 41.85648 10.99404 37953 ft 379 kts 219°
2026-05-07 17:10 41.81325 10.95448 37959 ft 378 kts 219°
2026-05-07 17:10 41.76976 10.91474 37960 ft 378 kts 219°
2026-05-07 17:11 41.72625 10.87506 37700 ft 377 kts 219°
2026-05-07 17:11 41.70453 10.85529 36939 ft 378 kts 219°
2026-05-07 17:11 41.68286 10.83556 36325 ft 376 kts 219°
2026-05-07 17:12 41.66130 10.81595 35718 ft 375 kts 219°
2026-05-07 17:12 41.63996 10.79656 35028 ft 377 kts 219°
2026-05-07 17:12 41.61820 10.77680 34275 ft 381 kts 219°
2026-05-07 17:12 41.59608 10.75674 33436 ft 387 kts 218°
2026-05-07 17:13 41.57371 10.73646 32576 ft 390 kts 218°
2026-05-07 17:13 41.55116 10.71604 31779 ft 393 kts 218°
2026-05-07 17:13 41.52846 10.69550 30990 ft 395 kts 218°
2026-05-07 17:13 41.50559 10.67483 30162 ft 399 kts 218°
2026-05-07 17:14 41.48257 10.65404 29315 ft 400 kts 217°
2026-05-07 17:14 41.45961 10.63330 28674 ft 400 kts 217°
2026-05-07 17:14 41.43673 10.61267 28032 ft 404 kts 217°
2026-05-07 17:14 41.41336 10.59161 27385 ft 407 kts 217°
2026-05-07 17:15 41.38985 10.57045 26746 ft 407 kts 217°
2026-05-07 17:15 41.36640 10.54936 26089 ft 407 kts 217°
2026-05-07 17:15 41.34298 10.52832 25450 ft 406 kts 217°
2026-05-07 17:15 41.31963 10.50736 24815 ft 405 kts 217°
2026-05-07 17:16 41.29631 10.48644 24180 ft 403 kts 217°
2026-05-07 17:16 41.27310 10.46564 23557 ft 403 kts 217°
2026-05-07 17:16 41.24986 10.44483 22833 ft 403 kts 217°
2026-05-07 17:16 41.22666 10.42407 22198 ft 401 kts 217°
2026-05-07 17:17 41.20392 10.40373 21595 ft 398 kts 216°
2026-05-07 17:17 41.18104 10.38329 21005 ft 395 kts 216°
2026-05-07 17:17 41.15831 10.36300 20427 ft 393 kts 216°
2026-05-07 17:17 41.13571 10.34284 19854 ft 390 kts 216°
2026-05-07 17:18 41.11324 10.32281 19299 ft 388 kts 215°
2026-05-07 17:18 41.09092 10.30294 18755 ft 385 kts 214°
2026-05-07 17:18 41.06875 10.28321 18210 ft 383 kts 214°
2026-05-07 17:18 41.04672 10.26362 17614 ft 380 kts 214°
2026-05-07 17:19 41.02512 10.24442 17075 ft 377 kts 214°
2026-05-07 17:19 41.00342 10.22517 16558 ft 374 kts 214°
2026-05-07 17:19 40.98202 10.20587 15951 ft 372 kts 218°
2026-05-07 17:19 40.96435 10.18048 15042 ft 381 kts 237°
2026-05-07 17:20 40.95250 10.14898 14357 ft 384 kts 246°
2026-05-07 17:20 40.94154 10.11694 13826 ft 381 kts 244°
2026-05-07 17:20 40.93062 10.08524 13314 ft 377 kts 245°
2026-05-07 17:20 40.91989 10.05379 12803 ft 373 kts 245°
2026-05-07 17:21 40.90947 10.02318 12322 ft 369 kts 245°
2026-05-07 17:21 40.89900 9.99238 11857 ft 365 kts 244°
2026-05-07 17:21 40.88866 9.96196 11392 ft 361 kts 244°
2026-05-07 17:21 40.87849 9.93202 11140 ft 352 kts 244°
2026-05-07 17:22 40.86864 9.90304 10977 ft 340 kts 244°
2026-05-07 17:22 40.85907 9.87492 10800 ft 330 kts 244°
2026-05-07 17:22 40.84978 9.84768 10628 ft 321 kts 244°
2026-05-07 17:22 40.84073 9.82118 10475 ft 311 kts 244°
2026-05-07 17:23 40.83207 9.79583 10316 ft 303 kts 244°
2026-05-07 17:23 40.82353 9.77088 10169 ft 294 kts 244°
2026-05-07 17:23 40.81521 9.74661 10012 ft 286 kts 243°
2026-05-07 17:23 40.80705 9.72284 9717 ft 284 kts 243°
2026-05-07 17:24 40.79890 9.69915 9359 ft 283 kts 244°
2026-05-07 17:24 40.79078 9.67558 9027 ft 281 kts 244°
2026-05-07 17:24 40.78271 9.65216 8707 ft 280 kts 244°
2026-05-07 17:24 40.77468 9.62888 8389 ft 278 kts 244°
2026-05-07 17:25 40.76669 9.60574 8077 ft 277 kts 244°
2026-05-07 17:25 40.75884 9.58304 7774 ft 275 kts 244°
2026-05-07 17:25 40.75091 9.56011 7456 ft 274 kts 244°
2026-05-07 17:25 40.74304 9.53737 7152 ft 271 kts 244°
2026-05-07 17:26 40.73522 9.51484 6860 ft 269 kts 244°
2026-05-07 17:26 40.72745 9.49243 6565 ft 268 kts 244°
2026-05-07 17:26 40.71973 9.47017 6262 ft 267 kts 244°
2026-05-07 17:26 40.71202 9.44796 5962 ft 266 kts 244°
2026-05-07 17:27 40.70536 9.42556 5746 ft 261 kts 259°
2026-05-07 17:27 40.70616 9.40249 5583 ft 254 kts 287°
2026-05-07 17:27 40.71422 9.38234 5482 ft 245 kts 304°
2026-05-07 17:27 40.72376 9.36423 5376 ft 236 kts 305°
2026-05-07 17:28 40.73296 9.34708 5269 ft 227 kts 306°
2026-05-07 17:28 40.74199 9.33040 5138 ft 220 kts 306°
2026-05-07 17:28 40.75129 9.31428 4984 ft 224 kts 316°
2026-05-07 17:28 40.76449 9.30382 4668 ft 224 kts 347°
2026-05-07 17:29 40.77982 9.30338 4337 ft 222 kts 16°
2026-05-07 17:29 40.79313 9.31307 4012 ft 220 kts 46°
2026-05-07 17:29 40.80159 9.32932 3705 ft 218 kts 62°
2026-05-07 17:29 40.80939 9.34655 3393 ft 219 kts 59°
2026-05-07 17:30 40.81773 9.36305 3080 ft 214 kts 57°
2026-05-07 17:30 40.82613 9.37905 2761 ft 210 kts 57°
2026-05-07 17:30 40.83438 9.39478 2431 ft 207 kts 56°
2026-05-07 17:30 40.84250 9.41031 2099 ft 205 kts 56°
2026-05-07 17:31 40.85047 9.42553 1803 ft 193 kts 56°
2026-05-07 17:31 40.85765 9.43925 1518 ft 172 kts 56°
2026-05-07 17:31 40.86406 9.45151 1284 ft 153 kts 56°
2026-05-07 17:31 40.86982 9.46253 1027 ft 145 kts 56°
2026-05-07 17:32 40.87560 9.47354 823 ft 146 kts 56°
2026-05-07 17:32 40.88141 9.48464 601 ft 147 kts 56°
2026-05-07 17:32 40.88714 9.49563 369 ft 143 kts 56°
2026-05-07 17:32 40.89280 9.50644 111 ft 142 kts 56°
2026-05-07 17:33 40.89816 9.51663 41 ft 124 kts 55°
2026-05-07 17:33 40.90164 9.52332 36 ft 54 kts 55°
2026-05-07 17:33 40.90295 9.52583 33 ft 27 kts 56°
2026-05-07 17:33 40.90419 9.52680 32 ft 21 kts 344°
2026-05-07 17:34 40.90452 9.52588 33 ft 11 kts 267°
2026-05-07 17:34 40.90448 9.52482 34 ft 12 kts 253°
2026-05-07 17:34 40.90401 9.52391 34 ft 13 kts 235°
2026-05-07 17:34 40.90345 9.52287 35 ft 15 kts 235°
2026-05-07 17:35 40.90282 9.52167 36 ft 17 kts 235°
2026-05-07 17:35 40.90214 9.52034 37 ft 15 kts 236°
2026-05-07 17:35 40.90177 9.51927 38 ft 12 kts 273°
2026-05-07 17:35 40.90200 9.51817 38 ft 12 kts 309°
2026-05-07 17:36 40.90268 9.51838 37 ft 13 kts 52°
2026-05-07 17:36 40.90315 9.51898 37 ft 7 kts 18°
2026-05-07 17:36 40.90362 9.51893 37 ft 5 kts 354°
2026-05-07 17:36 40.90386 9.51894 37 ft 1 kts
2026-05-07 17:37 40.90387 9.51894 37 ft 0 kts